Lapse_Rate
0.7 4.7 5.1 8.2 6.5 6.5 6.5 6.5 6.5 6.5 6.5 7.4 7.6 7.1 6.6 7.2 6.6 6.5 9.3 9.7 9.7 9.7 8.3 6.4 5.4 5.4 6.1 6.1 6.3 5.6 5.1 4.5 4.1 3.9 3.9 4.0 3.8 3.6 3.5 3.0 2.8 2.9 2.9 3.6 4.1 4.9 5.3 5.1 4.0
3.6 8.0 8.6 7.6 6.5 6.5 6.5 6.5 6.5 6.5 7.1 7.7 7.6 7.5 7.1 6.6 8.2 8.5 8.8 9.8 9.7 9.7 8.0 6.2 5.3 5.5 5.9 5.6 5.1 4.8 4.6 4.6 4.4 4.3 4.3 4.2 4.2 4.0 3.9 3.5 3.2 2.9 3.0 3.1 3.1 3.5 4.1 4.0 3.4
4.2 7.5 7.5 6.5 6.5 6.5 6.5 6.5 6.5 7.0 7.5 7.4 7.1 7.8 7.5 7.2 8.4 8.7 9.6 9.8 9.7 9.7 8.5 6.6 5.9 5.5 5.4 4.8 4.4 4.2 4.1 4.0 4.0 4.1 4.1 3.9 4.0 4.2 4.0 3.9 3.6 3.3 2.8 2.8 2.8 2.9 2.8 3.2 3.4
8.6 8.4 7.7 6.5 6.5 6.5 6.5 6.5 6.8 6.8 7.4 7.7 7.5 6.8 8.1 8.9 8.7 9.3 9.8 9.7 9.7 9.7 9.7 7.9 7.1 6.9 7.0 6.5 5.5 4.8 4.9 5.0 5.4 6.0 5.6 4.9 5.7 7.0 5.5 4.8 4.4 3.6 3.4 2.9 2.7 2.5 2.1 2.1 2.7
8.9 7.8 6.5 6.5 6.5 6.5 6.5 7.0 7.1 6.5 6.9 7.2 7.5 6.7 7.3 8.8 9.5 9.7 9.7 9.7 9.7 9.7 9.7 9.7 9.3 9.3 9.5 8.1 6.8 6.2 6.5 7.1 6.9 6.6 5.5 4.6 6.4 8.2 7.7 6.8 9.0 6.6 5.0 4.3 3.8 3.0 2.8 2.1 1.9
7.3 7.4 6.5 6.5 6.5 6.5 6.6 7.2 7.1 6.9 7.2 7.4 7.3 7.2 7.5 9.1 9.2 9.5 9.8 9.7 9.7 9.5 9.1 9.1 9.6 9.6 9.6 9.1 8.4 8.5 8.5 8.9 9.2 9.3 7.8 7.7 9.6 9.6 9.6 9.4 9.3 6.9 7.6 9.0 6.7 4.8 3.6 3.1 2.6
6.7 6.5 6.5 6.5 6.5 6.5 6.5 7.5 6.9 6.9 6.9 7.0 7.9 6.6 7.8 8.6 9.3 9.6 9.6 9.7 9.5 9.3 8.9 8.6 8.9 9.1 8.9 9.6 9.2 9.7 9.7 9.6 9.6 9.4 7.4 6.5 9.0 9.3 9.6 9.6 9.6 9.4 9.3 8.6 9.1 9.5 7.2 4.0 3.7
7.5 6.5 6.5 6.5 6.5 6.5 6.8 7.2 7.5 7.2 6.8 8.3 8.3 6.6 6.9 8.5 9.4 9.5 9.5 9.1 9.1 8.9 9.0 8.6 8.7 8.3 8.1 9.3 9.3 9.7 9.7 9.7 9.5 8.6 6.1 5.4 6.0 7.7 8.6 9.5 9.6 9.7 9.6 9.6 9.5 9.5 9.6 7.9 5.8
8.2 6.5 6.5 6.5 6.5 6.5 7.2 6.6 7.7 8.2 7.5 7.8 8.0 7.9 8.5 9.2 9.4 9.2 9.0 8.7 8.4 8.7 8.9 8.5 8.7 7.8 8.1 9.5 9.4 9.3 9.6 9.4 9.3 8.6 7.6 6.2 6.4 8.0 8.7 9.3 9.6 9.6 9.7 9.7 9.6 9.4 9.5 9.6 7.6
6.7 6.5 6.5 6.5 6.6 6.5 7.0 7.0 7.2 7.1 7.2 7.3 7.7 8.5 8.9 9.0 8.9 8.7 8.5 8.5 8.6 8.7 8.8 9.0 8.7 8.2 8.4 9.3 9.4 9.2 9.6 9.2 9.3 9.2 8.7 8.1 8.3 9.2 9.5 9.1 9.6 9.7 9.7 9.7 9.6 9.4 8.9 6.7 5.8
6.8 6.5 6.5 6.8 7.2 7.4 7.0 7.0 7.6 7.0 6.5 7.3 7.3 7.9 8.5 8.6 8.6 8.6 8.7 8.8 8.9 9.1 9.0 9.3 9.0 8.6 8.7 8.3 9.2 9.2 9.5 9.1 9.4 9.4 8.7 8.5 9.0 9.2 9.2 9.5 8.9 9.5 9.7 9.4 9.6 9.6 9.0 8.1 6.3
6.5 6.9 6.9 7.1 7.4 7.2 6.8 7.4 7.0 7.1 7.2 8.1 8.2 8.4 8.4 8.3 8.4 8.6 8.6 8.8 8.9 9.0 9.0 9.2 9.4 8.8 9.1 8.8 9.1 9.2 9.4 9.0 9.1 9.3 8.9 8.7 8.9 9.2 9.3 9.4 9.4 9.4 9.3 8.4 8.3 9.1 9.5 8.6 7.6
6.5 6.7 7.1 7.4 7.4 7.3 7.4 6.9 6.9 7.1 7.9 8.3 8.5 8.4 8.2 8.3 8.5 8.8 9.0 9.0 9.1 8.9 8.4 8.5 9.3 8.9 9.0 8.7 8.8 9.0 9.2 8.8 8.9 9.3 9.1 8.7 8.4 8.9 9.4 9.0 9.4 9.4 8.6 8.2 8.1 9.0 9.1 9.0 9.0
7.0 7.0 7.0 7.2 7.1 7.2 6.7 6.9 7.1 7.4 8.1 8.0 8.1 8.0 8.2 8.4 8.5 8.7 8.7 8.8 8.9 9.1 8.5 8.3 8.9 8.8 8.6 8.6 9.0 9.0 9.3 9.1 9.3 9.3 9.1 8.4 8.4 9.1 9.0 9.3 9.3 8.2 8.0 8.1 8.2 8.9 8.6 8.8 9.1
7.2 6.5 6.5 6.8 7.0 6.7 7.2 6.5 6.5 7.6 7.9 7.6 7.8 7.9 8.2 8.4 8.6 8.5 8.7 8.8 9.0 9.0 8.9 8.6 8.6 8.7 8.3 9.0 9.2 9.3 9.4 9.3 9.3 9.4 9.3 8.3 8.5 9.2 9.1 9.0 8.9 8.7 7.7 8.6 8.6 9.0 9.1 8.8 9.4
6.5 6.5 6.5 6.5 6.8 6.9 6.8 6.5 6.7 7.7 7.5 7.3 7.6 7.8 8.0 8.3 8.5 8.7 9.0 9.1 9.2 8.8 8.7 9.0 9.4 8.8 8.4 8.9 9.2 9.3 9.4 9.3 9.5 9.5 9.3 8.7 9.2 8.3 8.0 8.0 8.5 8.4 8.2 8.7 8.5 8.5 8.2 8.3 8.3
6.5 6.5 6.5 6.5 6.8 6.5 6.5 6.5 6.8 7.6 7.4 7.2 7.4 7.6 7.9 8.1 8.4 8.7 9.1 8.9 9.2 8.7 9.0 9.0 8.5 8.5 8.6 9.1 9.3 9.2 9.4 9.4 9.4 9.3 9.2 9.2 9.3 8.2 7.8 8.4 8.3 8.4 8.8 8.4 8.2 8.2 8.3 8.0 8.2
6.5 6.5 6.5 6.5 6.5 6.5 6.5 6.5 6.5 7.3 7.3 7.1 7.3 7.5 7.7 7.9 8.2 8.5 9.0 9.0 9.3 9.0 9.1 9.0 8.8 8.4 8.8 9.0 9.1 9.2 9.4 9.4 9.4 9.3 9.2 9.3 8.5 8.5 8.3 8.5 8.5 8.5 8.3 8.0 8.1 8.0 8.1 7.7 8.0
6.5 6.5 6.5 6.5 6.5 6.5 6.5 6.5 6.5 7.0 7.1 6.9 7.2 7.3 7.5 7.8 8.4 8.7 8.7 9.0 9.3 8.7 9.0 9.0 8.6 8.2 8.5 8.7 8.6 8.8 8.8 8.9 9.0 9.5 9.5 9.4 8.6 8.5 8.2 8.2 8.8 8.4 8.0 7.9 7.4 7.9 7.5 7.1 7.2
6.5 6.5 6.5 6.5 6.5 6.5 6.5 6.5 6.5 6.7 6.9 7.1 7.2 7.3 7.5 7.7 8.1 8.4 8.7 8.9 9.0 8.8 8.7 9.0 8.9 8.6 8.7 9.0 8.8 8.8 8.9 9.0 9.1 9.5 9.4 9.4 8.4 8.5 8.3 8.4 8.5 7.9 7.8 7.8 7.5 7.8 7.2 6.6 7.1
6.5 6.5 6.5 6.5 6.5 6.5 6.5 6.5 6.5 6.6 7.0 7.3 7.4 7.6 7.7 7.7 7.8 8.2 8.4 8.6 8.9 8.2 8.6 9.1 9.0 8.7 8.5 8.9 9.2 9.0 9.2 9.3 9.0 9.0 9.1 9.3 8.2 8.0 8.8 8.6 8.5 8.0 7.9 7.6 7.8 7.7 7.6 6.7 6.8
6.5 6.5 6.5 6.5 6.5 6.5 6.5 6.5 6.5 6.5 6.5 6.7 7.0 7.1 7.4 7.7 8.1 8.3 8.4 8.5 8.6 8.3 8.7 9.2 9.0 8.7 9.0 9.0 8.9 8.6 8.7 8.6 8.8 8.9 9.0 8.9 7.9 9.0 8.5 8.8 8.4 7.9 8.0 7.6 7.7 8.0 7.5 6.9 6.8
6.5 6.5 6.5 6.5 6.5 6.5 6.5 6.5 6.5 6.5 6.5 6.5 6.7 7.2 7.4 7.8 7.9 8.1 8.3 8.6 8.8 8.9 8.3 8.6 9.0 8.7 8.7 8.7 8.8 8.8 8.6 9.0 9.1 8.9 8.8 8.2 8.4 8.9 8.4 8.6 8.2 8.0 8.0 7.6 7.7 7.6 7.5 7.3 6.8
6.5 6.5 6.5 6.5 6.5 6.5 6.5 6.5 6.5 6.5 6.5 6.5 6.8 7.2 7.5 7.7 7.9 8.2 8.5 8.7 8.8 8.7 8.5 8.7 8.7 8.7 8.6 8.8 8.8 8.5 8.4 8.6 8.7 8.7 8.8 8.4 8.3 8.9 8.4 8.5 8.0 8.2 7.9 7.8 7.7 7.7 7.6 7.3 6.9
6.5 6.5 6.5 6.5 6.5 6.5 6.5 6.5 6.5 6.5 6.5 6.6 6.6 7.0 7.4 7.6 7.6 8.0 8.2 8.4 8.5 8.3 8.4 8.6 8.9 8.8 8.8 8.8 8.8 8.7 8.7 8.7 8.7 8.8 8.8 7.8 8.2 8.7 8.3 8.3 7.8 7.9 8.0 8.0 7.9 7.8 7.7 7.5 6.9
6.5 6.5 6.5 6.5 6.5 6.5 6.5 6.5 6.5 6.5 6.9 7.1 7.3 7.2 7.4 7.5 7.5 7.9 8.2 8.3 8.3 8.5 8.3 8.7 9.0 8.9 9.0 8.9 8.9 8.8 8.9 9.1 9.0 8.9 8.7 8.0 8.4 8.8 8.4 8.3 8.1 8.2 8.2 8.0 7.8 7.7 7.8 7.6 7.3
6.5 6.5 6.5 6.5 6.5 6.5 6.5 6.5 6.5 6.5 6.5 6.8 6.9 7.2 7.1 7.4 7.6 8.0 8.0 8.4 8.2 7.9 8.3 8.6 8.8 9.1 9.0 9.0 8.9 8.8 8.9 8.9 8.9 8.8 8.7 8.2 8.7 9.2 8.5 8.3 8.1 8.3 8.2 7.9 7.6 7.5 7.6 7.7 7.8
6.5 6.5 6.5 6.5 6.5 6.5 6.5 6.5 6.5 6.5 6.5 6.5 6.5 6.6 7.1 7.6 7.8 7.9 8.1 8.3 7.9 8.4 8.2 8.8 8.7 8.9 9.0 9.0 9.0 9.1 9.0 9.0 8.9 8.9 8.7 8.4 8.6 8.6 8.0 8.3 8.4 8.5 8.4 7.9 7.6 7.6 7.9 7.9 7.9
6.5 6.5 6.5 6.5 6.5 6.5 6.5 6.5 6.5 6.5 6.5 6.5 6.0 6.6 6.9 7.3 7.5 7.7 8.0 8.3 8.3 8.6 8.5 8.4 8.7 8.8 8.8 8.9 8.9 8.9 8.9 9.0 8.9 8.9 8.9 8.6 8.3 8.6 7.0 8.4 8.7 8.4 8.2 7.8 7.4 7.5 7.9 7.8 7.9
6.5 6.5 6.5 6.5 6.5 6.5 6.5 6.5 6.5 6.5 6.5 6.7 6.7 7.2 7.1 7.4 7.7 7.8 8.1 8.3 8.5 8.6 8.7 8.6 8.5 8.7 8.9 9.0 8.8 8.9 9.0 9.1 8.9 8.9 8.9 9.2 8.3 8.1 6.9 8.2 8.6 8.6 8.4 8.1 7.7 7.7 7.8 7.6 7.4
Wind_Speed
12 11 8 7 7 8 4 9 16 12 8 15 15 15 20 17 10 7 9 7 10 11 19 18 19 21 21 21 21 22 24 26 27 29 30 29 28 28 28 28 28 28 28 27 26 27 27 26 27
11 14 10 7 11 12 8 8 18 16 15 12 16 17 17 17 16 11 11 7 11 13 19 17 17 19 20 21 22 22 24 24 25 26 28 28 27 27 27 28 28 28 29 28 28 27 26 26 25
13 16 8 7 11 8 5 16 15 13 5 8 7 14 7 8 12 7 8 9 12 13 16 15 16 16 19 22 22 22 23 25 25 26 28 28 26 26 27 27 26 27 28 28 29 27 27 27 27
7 9 7 8 12 15 14 13 13 13 10 12 17 11 7 10 7 10 9 11 12 13 13 13 15 17 16 18 21 20 21 22 23 25 26 28 25 24 24 26 26 27 26 26 27 28 28 27 27
10 8 10 4 9 13 12 13 13 10 9 8 13 10 9 11 12 11 10 12 9 11 12 14 15 17 17 17 21 21 22 23 24 26 28 29 26 26 25 27 25 26 26 26 27 26 27 28 27
9 10 10 7 13 11 10 5 7 13 13 15 18 15 9 11 11 10 9 8 10 9 12 13 16 18 19 14 21 21 21 22 23 25 27 28 25 25 23 26 26 28 27 25 27 26 27 28 28
11 11 12 14 11 9 7 9 10 11 8 9 10 12 10 11 8 10 9 8 9 7 7 10 14 18 20 16 21 20 20 20 23 25 28 29 28 27 27 27 26 27 28 28 28 24 27 29 28
6 8 12 4 10 8 7 7 6 9 10 7 2 8 13 11 8 8 10 8 6 7 7 9 12 15 17 17 21 20 21 21 24 25 29 30 29 29 30 29 27 27 27 28 28 30 29 29 28
9 6 10 6 12 13 12 11 12 10 8 13 17 18 13 11 8 6 7 8 5 5 5 10 11 14 17 18 18 19 20 23 22 22 24 24 23 24 25 29 29 28 27 27 29 31 31 29 26
6 7 9 11 13 18 14 11 11 11 13 13 14 13 11 9 6 5 5 4 6 6 6 9 11 13 16 18 16 18 17 16 16 17 17 19 21 23 25 26 29 26 26 24 26 28 30 26 21
7 5 9 11 17 17 14 13 11 13 11 12 12 12 10 8 5 3 5 5 6 7 7 8 10 14 13 16 16 15 15 15 15 15 14 17 17 19 19 19 21 20 22 14 19 18 18 20 21
10 11 13 14 13 14 14 14 11 7 12 13 12 11 8 7 4 4 5 5 6 7 8 8 11 10 12 15 14 15 14 15 15 14 14 15 14 17 18 17 20 18 17 17 19 17 18 22 24
15 13 13 12 11 10 13 9 11 13 12 12 11 9 7 6 5 6 0 7 6 7 8 8 9 10 13 14 14 14 12 14 17 14 15 15 15 14 17 18 18 18 20 19 17 16 17 15 19
11 13 12 10 12 9 11 11 10 11 12 11 9 8 8 5 4 2 7 6 4 4 9 7 6 13 15 13 13 12 12 15 14 14 15 17 18 15 16 16 17 19 22 21 19 14 9 10 13
16 14 11 9 9 6 11 10 9 13 12 10 8 9 7 4 2 6 6 4 4 6 10 7 8 14 14 12 12 13 12 16 12 13 15 19 21 16 19 17 16 19 24 23 19 17 15 10 9
9 11 8 9 7 4 8 6 16 14 11 10 12 9 6 6 3 7 4 2 6 8 8 6 10 12 13 11 11 10 13 14 14 14 15 19 19 21 18 15 15 24 22 19 13 10 11 11 11
11 4 10 9 10 7 9 10 14 14 12 12 10 9 8 7 6 6 1 6 5 10 7 7 8 8 8 10 12 12 15 14 14 16 16 18 17 20 18 15 18 23 17 13 10 10 11 12 11
4 12 11 8 13 9 11 13 16 15 14 12 11 10 8 7 5 9 2 6 6 8 6 7 7 7 8 9 11 12 12 13 15 16 17 17 17 18 17 16 19 22 12 11 12 13 10 11 11
11 6 4 7 14 9 12 12 16 16 15 12 11 9 7 7 7 7 5 4 1 7 6 7 8 7 6 7 7 8 8 8 8 14 18 17 18 18 17 16 18 20 12 13 13 11 13 11 10
5 4 4 11 7 8 11 12 12 18 16 14 13 10 8 8 7 9 5 3 3 5 7 7 8 7 7 7 6 6 7 8 10 14 16 17 19 19 18 17 15 17 12 13 12 13 10 10 9
6 7 7 1 8 9 11 16 15 16 17 15 12 10 10 9 8 8 6 4 0 8 7 7 8 7 8 8 7 8 9 9 7 8 7 15 20 21 19 18 18 16 12 10 11 11 13 9 9
5 5 3 3 4 3 9 5 15 15 16 16 13 10 7 8 6 6 4 5 5 7 6 5 6 7 8 9 8 9 8 9 8 8 7 12 22 20 18 20 19 17 13 11 11 10 11 11 9
6 4 5 5 6 8 7 3 8 16 15 14 14 13 9 8 8 7 6 6 7 5 7 6 5 7 7 8 8 7 9 7 7 8 10 11 16 20 18 21 19 16 13 11 13 12 11 9 6
10 5 3 4 6 3 11 7 6 8 13 16 16 13 13 10 8 7 8 6 6 7 6 5 6 8 9 8 9 9 10 9 8 10 8 8 8 13 18 21 19 19 16 12 11 12 11 10 9
8 8 1 2 2 5 5 9 9 5 3 6 14 15 13 11 9 8 8 6 7 8 7 6 7 10 9 9 9 10 10 9 9 10 9 10 9 9 11 18 16 15 19 18 17 11 12 11 9
11 11 4 3 2 2 7 4 2 12 9 7 10 13 13 11 9 7 6 7 8 8 8 7 7 9 10 9 9 9 9 6 7 8 8 7 8 9 17 18 20 20 21 19 18 9 10 12 10
9 9 8 4 4 2 3 5 5 8 8 5 4 11 12 11 9 6 9 6 8 9 7 5 7 9 9 9 7 8 8 7 8 9 7 7 10 12 17 19 17 20 21 19 17 10 12 11 12
4 4 2 1 4 4 5 10 2 9 7 8 7 8 10 10 10 8 8 7 10 7 6 5 6 8 8 8 7 8 8 8 7 7 9 9 11 14 16 16 17 17 19 19 14 11 12 12 10
3 2 5 5 1 2 3 2 5 6 7 7 7 7 8 9 8 9 8 8 9 7 6 6 6 8 6 6 7 7 7 7 7 7 8 8 11 13 13 15 13 14 15 16 13 13 14 14 14
9 6 5 4 4 2 2 4 3 2 7 9 9 8 8 8 8 9 9 9 8 6 7 7 5 6 5 6 8 7 7 7 7 8 8 10 7 12 14 16 12 13 15 14 14 14 14 15 15
Wind_Direction
295 246 230 259 253 242 109 85 115 125 79 74 63 72 75 49 26 77 89 56 43 48 58 28 21 19 18 14 13 12 10 8 7 5 4 3 2 2 2 2 0 359 358 356 353 346 346 350 350
292 271 235 274 241 284 67 107 71 80 98 88 90 92 75 76 87 78 77 61 50 43 69 36 24 20 18 16 14 12 11 9 8 6 4 2 360 360 359 360 359 358 356 353 353 348 343 340 342
271 268 266 234 260 23 71 73 96 104 113 101 101 55 51 103 56 92 81 54 50 45 73 47 28 19 18 18 14 11 9 9 7 4 3 1 359 357 356 357 357 357 355 353 351 349 347 338 338
263 241 235 243 51 37 88 104 115 105 82 78 117 92 73 54 82 90 78 57 57 43 35 65 34 20 18 17 14 11 8 7 5 4 3 0 359 357 354 355 354 355 352 351 350 347 345 343 337
240 262 266 217 79 91 95 125 149 105 107 90 129 95 100 90 93 89 77 64 54 46 29 27 34 16 12 16 14 8 7 6 5 4 4 358 355 356 352 352 353 354 349 347 345 345 343 340 337
284 252 281 284 114 107 100 82 98 89 100 104 99 110 99 123 109 99 78 68 58 54 30 18 12 14 7 21 15 7 6 5 3 4 4 357 355 356 355 350 352 350 348 346 344 340 340 337 332
287 296 282 106 117 123 97 92 114 128 129 79 142 101 128 113 123 121 110 96 87 63 63 26 15 13 3 1 15 4 5 5 3 4 4 359 359 353 358 353 353 347 346 344 342 339 338 336 330
290 288 271 169 150 127 127 94 116 116 80 79 74 140 146 126 143 140 122 121 123 122 94 58 22 16 359 346 10 3 2 6 3 4 3 359 357 349 354 352 348 347 346 344 340 344 337 336 330
292 265 282 85 168 127 136 134 70 89 123 70 60 87 106 125 159 135 119 115 125 109 80 80 46 19 358 357 6 2 1 6 3 2 2 360 351 343 350 347 346 346 345 346 346 339 339 337 344
296 339 36 44 78 130 143 139 138 132 114 103 98 104 127 147 111 87 109 85 92 76 56 47 54 29 1 359 3 360 358 8 4 1 7 2 348 344 352 343 343 341 339 345 344 342 340 340 335
4 61 86 77 100 130 133 133 147 139 141 138 132 133 127 115 90 125 81 85 57 56 53 31 35 36 8 349 8 353 349 7 355 350 16 1 351 344 348 343 339 332 336 346 348 339 339 330 329
94 76 88 101 117 123 145 143 159 137 106 119 130 127 137 116 118 62 53 39 41 45 57 37 24 35 12 352 11 347 343 11 338 347 15 359 1 347 345 343 329 333 330 358 349 334 340 334 325
98 99 104 113 126 117 133 144 97 101 110 119 128 131 131 144 144 98 93 58 27 27 68 50 18 35 19 357 6 342 339 4 323 353 7 18 5 345 349 332 330 326 4 354 341 334 329 322 317
124 119 114 113 105 141 124 112 125 131 132 132 142 147 165 138 61 120 57 35 29 2 58 44 33 37 26 354 356 336 347 351 332 356 1 23 8 348 340 333 333 7 350 342 332 320 317 318 322
125 123 120 132 143 139 130 163 176 152 158 144 173 191 145 125 179 72 60 325 40 33 44 23 30 42 26 349 338 341 353 339 350 349 6 19 3 348 353 352 357 354 343 332 327 323 328 321 323
139 149 159 157 164 134 197 222 131 160 168 172 199 176 183 166 75 84 60 342 27 58 43 29 36 32 15 336 349 340 350 339 354 356 7 11 349 26 7 354 350 340 332 332 326 336 330 329 326
186 249 209 167 195 159 221 127 161 169 186 196 196 173 186 149 157 134 55 60 22 63 36 29 44 35 4 343 350 5 355 351 356 4 11 1 4 18 5 358 342 332 333 330 333 336 328 331 326
216 215 187 188 189 184 210 262 157 180 192 206 195 196 166 172 176 96 76 58 6 55 34 34 36 35 10 12 348 9 354 353 360 3 5 359 30 11 9 356 347 341 337 336 338 335 335 329 326
286 290 184 191 153 201 236 228 175 181 204 207 208 194 179 169 129 113 120 142 335 64 41 29 33 35 30 11 2 9 350 356 1 0 355 4 33 18 12 3 353 340 336 336 345 333 339 331 328
276 244 163 91 131 218 255 237 240 177 199 209 207 199 193 172 172 156 134 112 70 79 55 23 33 37 37 8 13 11 353 358 4 357 359 10 30 22 12 359 347 337 335 342 338 343 334 322 327
225 228 152 265 150 226 282 273 224 182 189 206 207 207 191 186 194 155 132 128 170 76 58 16 24 48 46 16 13 5 360 356 1 1 353 35 27 18 4 359 347 339 339 334 336 331 329 319 329
222 103 358 156 196 283 188 312 188 199 189 197 203 204 203 180 169 109 133 138 68 75 91 31 15 53 41 28 13 12 9 355 354 358 353 23 22 6 3 359 347 338 336 333 331 329 327 327 332
72 123 170 216 240 280 260 241 267 184 196 198 197 199 191 206 162 166 133 97 82 83 74 49 14 56 48 33 24 20 13 354 345 351 2 26 15 1 6 358 347 340 340 334 334 333 335 338 331
118 152 182 240 244 249 225 199 275 205 210 193 186 192 185 180 147 117 98 85 106 92 73 17 27 50 45 33 27 28 18 4 354 359 7 23 6 359 7 359 348 342 342 342 338 338 338 346 351
172 175 212 221 188 237 162 195 270 80 55 214 170 178 169 156 143 148 149 168 94 81 64 15 28 43 42 30 27 28 19 8 1 6 11 22 5 2 4 355 344 347 347 347 346 345 353 353 1
200 199 152 229 258 80 134 218 64 108 100 31 142 150 143 142 134 137 108 94 104 91 62 28 29 41 37 33 28 28 23 6 11 9 24 30 7 4 10 349 347 352 354 354 352 353 1 359 5
186 231 234 227 317 300 253 144 101 117 122 140 129 134 140 141 131 138 109 102 97 88 71 55 35 42 40 35 28 29 23 9 13 14 27 32 14 9 15 350 348 357 359 358 358 2 3 5 9
302 218 163 126 187 232 254 196 151 163 154 160 150 149 137 139 135 132 126 118 98 102 92 72 45 50 43 40 35 29 17 16 14 17 25 35 23 16 19 352 353 3 3 360 1 360 4 9 11
176 112 43 89 100 251 288 110 298 131 143 146 134 138 134 137 135 128 125 118 111 109 108 78 55 53 44 44 44 33 19 18 16 20 21 32 32 26 19 355 359 8 4 1 1 2 8 14 13
231 162 142 160 191 217 277 269 219 160 160 149 160 153 139 138 141 133 125 128 140 108 98 89 69 57 54 50 54 37 23 21 17 20 18 20 42 37 26 6 3 10 7 360 2 5 12 15 11